sat.trackr.live / text

‹ back to catalog

STARLINK-3839

NORAD 52480 · 2022-049AF

PAYLOAD ACTIVE UNKNOWN

§ Identity

Operator
Country
US
Launch date
2022-05-06
Launch site
AFETR
Launch vehicle
Mass (kg)
RCS (m²)

Purposes: comms

External: N2YO · Heavens-Above · Gunter

§ Orbital elements

Epoch: 2026-05-25T01:39:42.818112Z

Period
95.44 min
Inclination
53.2155°
Eccentricity
0.0001508
Mean motion
15.08844604 rev/d
Perigee alt
538.7 km
Apogee alt
540.8 km
Semi-major
6,917.9 km
B*
-2.3132e-5
RAAN
76.2371°
Arg perigee
86.4423°
Mean anomaly
273.6742°
Rev number
22,378

§ Raw data

STARLINK-38391 52480U 22049AF  26145.06924558 -.00000656  00000+0 -23132-4 0  99962 52480  53.2155  76.2371 0001508  86.4423 273.6742 15.08844604223782

JSON: /api/v1/satellites/52480 · /tle

For live sub-satellite position, see the globe view (requires WebGL).

§ Visibility from observer

Set your observer location to see the next 7 days of passes ≥ 10°. The values pass through the URL so the page stays shareable.

No JS? Fill the form by hand. The geolocation button needs JavaScript.